SWA3484 KDAL-KMIA

Flight info

Callsign SWA3484
Flight time 2h 10m
Altitude 39000
Route LNDRE5 ZALEA HRV Q105 BLVNS Y290 DOWRY FROGZ5
Aircraft B737/M-SADE2E3GIJ4RWZ/LB1D1

Departure

Time 2026-05-07 23:58
Airport Dallas Love Field (KDAL)

Arrival

Time 2026-05-08 02:09
Airport Miami International Airport (KMIA)
Time Latitude Longitude Altitude Speed Heading
2026-05-07 23:21 32.84642 -96.84894 483 ft 0 kts 181°
2026-05-07 23:48 32.84647 -96.84894 483 ft 4 kts 181°
2026-05-07 23:48 32.84669 -96.84894 478 ft 2 kts 181°
2026-05-07 23:48 32.84689 -96.84894 475 ft 4 kts 181°
2026-05-07 23:48 32.84702 -96.84893 479 ft 1 kts 181°
2026-05-07 23:51 32.84700 -96.84892 479 ft 1 kts 162°
2026-05-07 23:51 32.84699 -96.84885 480 ft 1 kts 99°
2026-05-07 23:51 32.84709 -96.84875 477 ft 3 kts 33°
2026-05-07 23:52 32.84743 -96.84857 480 ft 7 kts 17°
2026-05-07 23:52 32.84795 -96.84889 483 ft 11 kts 314°
2026-05-07 23:52 32.84857 -96.84965 483 ft 14 kts 316°
2026-05-07 23:52 32.84911 -96.85028 483 ft 0 kts 316°
2026-05-07 23:53 32.84912 -96.85028 483 ft 1 kts 317°
2026-05-07 23:54 32.84925 -96.85042 477 ft 4 kts 316°
2026-05-07 23:54 32.84958 -96.85081 483 ft 9 kts 315°
2026-05-07 23:54 32.85006 -96.85152 482 ft 13 kts 307°
2026-05-07 23:54 32.85079 -96.85237 480 ft 17 kts 317°
2026-05-07 23:55 32.85172 -96.85335 483 ft 18 kts 321°
2026-05-07 23:55 32.85271 -96.85429 477 ft 18 kts 319°
2026-05-07 23:55 32.85360 -96.85528 479 ft 17 kts 316°
2026-05-07 23:55 32.85446 -96.85624 483 ft 17 kts 316°
2026-05-07 23:56 32.85528 -96.85716 483 ft 16 kts 316°
2026-05-07 23:56 32.85612 -96.85787 480 ft 13 kts
2026-05-07 23:56 32.85648 -96.85754 480 ft 6 kts 46°
2026-05-07 23:56 32.85655 -96.85745 480 ft 0 kts 44°
2026-05-07 23:57 32.85664 -96.85736 478 ft 5 kts 42°
2026-05-07 23:57 32.85697 -96.85695 484 ft 8 kts 59°
2026-05-07 23:58 32.85678 -96.85620 479 ft 15 kts 135°
2026-05-07 23:58 32.85455 -96.85362 480 ft 87 kts 135°
2026-05-07 23:58 32.84832 -96.84631 512 ft 160 kts 135°
2026-05-07 23:58 32.84002 -96.83579 1185 ft 182 kts 133°
2026-05-07 23:59 32.83104 -96.82468 2228 ft 190 kts 138°
2026-05-07 23:59 32.82015 -96.81382 2812 ft 220 kts 140°
2026-05-07 23:59 32.80786 -96.80154 3462 ft 237 kts 139°
2026-05-07 23:59 32.79512 -96.78841 4254 ft 251 kts 138°
2026-05-08 00:00 32.78125 -96.77382 4934 ft 274 kts 138°
2026-05-08 00:00 32.76695 -96.75863 5638 ft 280 kts 139°
2026-05-08 00:00 32.75249 -96.74295 6029 ft 282 kts 138°
2026-05-08 00:00 32.73817 -96.72641 6873 ft 291 kts 139°
2026-05-08 00:01 32.72361 -96.70945 7936 ft 293 kts 139°
2026-05-08 00:01 32.70896 -96.69239 8939 ft 298 kts 139°
2026-05-08 00:01 32.69446 -96.67507 10121 ft 297 kts 136°
2026-05-08 00:01 32.68362 -96.65321 10681 ft 327 kts 109°
2026-05-08 00:02 32.68124 -96.62537 11182 ft 349 kts 91°
2026-05-08 00:02 32.68134 -96.59622 11995 ft 357 kts 91°
2026-05-08 00:02 32.68121 -96.56646 12828 ft 364 kts 91°
2026-05-08 00:02 32.68082 -96.53612 13686 ft 371 kts 90°
2026-05-08 00:03 32.68203 -96.50529 14462 ft 377 kts 84°
2026-05-08 00:03 32.68479 -96.47407 15259 ft 383 kts 83°
2026-05-08 00:03 32.68784 -96.44247 16064 ft 389 kts 84°
2026-05-08 00:03 32.69073 -96.41035 16841 ft 395 kts 84°
2026-05-08 00:04 32.69340 -96.37765 17603 ft 401 kts 85°
2026-05-08 00:04 32.69598 -96.34438 18367 ft 407 kts 85°
2026-05-08 00:04 32.69708 -96.31066 19007 ft 413 kts 93°
2026-05-08 00:04 32.69532 -96.27639 19650 ft 419 kts 97°
2026-05-08 00:05 32.69246 -96.24163 20292 ft 426 kts 97°
2026-05-08 00:05 32.68938 -96.20635 20938 ft 432 kts 97°
2026-05-08 00:05 32.68643 -96.17060 21576 ft 439 kts 96°
2026-05-08 00:05 32.68367 -96.13422 22198 ft 446 kts 96°
2026-05-08 00:06 32.68107 -96.09740 22801 ft 452 kts 95°
2026-05-08 00:06 32.67853 -96.05994 23411 ft 459 kts 95°
2026-05-08 00:06 32.67598 -96.02185 23936 ft 465 kts 95°
2026-05-08 00:06 32.67340 -95.98340 24530 ft 468 kts 96°
2026-05-08 00:07 32.67080 -95.94494 25177 ft 469 kts 96°
2026-05-08 00:07 32.66817 -95.90628 25790 ft 471 kts 97°
2026-05-08 00:07 32.66549 -95.86738 26349 ft 474 kts 97°
2026-05-08 00:07 32.66278 -95.82823 26888 ft 478 kts 97°
2026-05-08 00:08 32.66003 -95.78882 27429 ft 481 kts 98°
2026-05-08 00:08 32.65726 -95.74921 27963 ft 484 kts 98°
2026-05-08 00:08 32.65445 -95.70926 28498 ft 487 kts 98°
2026-05-08 00:08 32.65162 -95.66920 29036 ft 489 kts 99°
2026-05-08 00:09 32.64880 -95.62931 29554 ft 492 kts 99°
2026-05-08 00:09 32.64591 -95.58874 30027 ft 495 kts 99°
2026-05-08 00:09 32.64299 -95.54794 30450 ft 498 kts 99°
2026-05-08 00:09 32.64005 -95.50689 30819 ft 502 kts 99°
2026-05-08 00:10 32.63706 -95.46551 31166 ft 506 kts 99°
2026-05-08 00:10 32.63403 -95.42367 31517 ft 510 kts 99°
2026-05-08 00:10 32.63098 -95.38164 31864 ft 513 kts 99°
2026-05-08 00:10 32.62789 -95.33934 32206 ft 516 kts 99°
2026-05-08 00:11 32.62477 -95.29679 32477 ft 521 kts 99°
2026-05-08 00:11 32.62159 -95.25371 32717 ft 526 kts 99°
2026-05-08 00:11 32.61839 -95.21043 33066 ft 528 kts 99°
2026-05-08 00:11 32.61518 -95.16708 33516 ft 527 kts 99°
2026-05-08 00:12 32.61196 -95.12382 33976 ft 526 kts 99°
2026-05-08 00:12 32.60872 -95.08058 34318 ft 527 kts 99°
2026-05-08 00:12 32.60545 -95.03720 34560 ft 529 kts 99°
2026-05-08 00:12 32.60213 -94.99362 34795 ft 532 kts 99°
2026-05-08 00:13 32.59880 -94.94988 35077 ft 533 kts 99°
2026-05-08 00:13 32.59544 -94.90600 35301 ft 536 kts 99°
2026-05-08 00:13 32.59205 -94.86186 35523 ft 539 kts 99°
2026-05-08 00:13 32.58864 -94.81759 35809 ft 539 kts 99°
2026-05-08 00:14 32.58482 -94.77330 36098 ft 538 kts 103°
2026-05-08 00:14 32.57622 -94.73053 36315 ft 532 kts 113°
2026-05-08 00:14 32.56471 -94.68892 36566 ft 530 kts 116°
2026-05-08 00:14 32.55222 -94.64775 36811 ft 531 kts 117°
2026-05-08 00:15 32.53953 -94.60671 37061 ft 532 kts 117°
2026-05-08 00:15 32.52699 -94.56547 37307 ft 532 kts 117°
2026-05-08 00:15 32.51475 -94.52405 37582 ft 533 kts 116°
2026-05-08 00:15 32.50275 -94.48249 37871 ft 533 kts 116°
2026-05-08 00:16 32.49091 -94.44084 38153 ft 533 kts 116°
2026-05-08 00:16 32.47916 -94.39921 38500 ft 532 kts 116°
2026-05-08 00:16 32.46749 -94.35782 38808 ft 530 kts 116°
2026-05-08 00:16 32.45581 -94.31650 39055 ft 529 kts 116°
2026-05-08 00:17 32.43225 -94.23388 39058 ft 534 kts 116°
2026-05-08 00:17 32.40850 -94.15079 39033 ft 530 kts 116°
2026-05-08 00:18 32.38496 -94.06858 39051 ft 526 kts 116°
2026-05-08 00:18 32.36141 -93.98682 39064 ft 525 kts 116°
2026-05-08 00:19 32.33786 -93.90524 39062 ft 524 kts 116°
2026-05-08 00:19 32.31425 -93.82363 39060 ft 524 kts 116°
2026-05-08 00:20 32.29063 -93.74221 39018 ft 524 kts 116°
2026-05-08 00:20 32.26692 -93.66067 39052 ft 525 kts 116°
2026-05-08 00:21 32.24307 -93.57888 39062 ft 528 kts 116°
2026-05-08 00:21 32.21905 -93.49682 39055 ft 530 kts 117°
2026-05-08 00:22 32.20350 -93.45814 39030 ft 512 kts 136°
2026-05-08 00:22 32.18242 -93.42511 39097 ft 502 kts 139°
2026-05-08 00:22 32.13875 -93.36033 39056 ft 506 kts 140°
2026-05-08 00:23 32.09496 -93.29493 39054 ft 510 kts 139°
2026-05-08 00:23 32.05865 -93.23983 39050 ft 512 kts 138°
2026-05-08 00:24 32.01513 -93.17331 39024 ft 511 kts 138°
2026-05-08 00:24 31.96529 -93.09698 39038 ft 501 kts 139°
2026-05-08 00:25 31.92265 -93.03208 39046 ft 500 kts 139°
2026-05-08 00:25 31.88693 -92.97790 39045 ft 500 kts 139°
2026-05-08 00:26 31.84461 -92.91378 39046 ft 500 kts 139°
2026-05-08 00:26 31.80196 -92.84923 39051 ft 500 kts 139°
2026-05-08 00:27 31.75923 -92.78467 39028 ft 501 kts 138°
2026-05-08 00:27 31.71643 -92.72009 39050 ft 502 kts 138°
2026-05-08 00:28 31.67349 -92.65540 39043 ft 503 kts 138°
2026-05-08 00:28 31.63044 -92.59065 39061 ft 504 kts 138°
2026-05-08 00:29 31.58717 -92.52572 39058 ft 505 kts 138°
2026-05-08 00:29 31.54383 -92.46076 39051 ft 507 kts 138°
2026-05-08 00:30 31.50037 -92.39572 39044 ft 507 kts 138°
2026-05-08 00:30 31.45690 -92.33076 39040 ft 506 kts 138°
2026-05-08 00:31 31.41339 -92.26586 39032 ft 506 kts 138°
2026-05-08 00:31 31.37001 -92.20127 39040 ft 505 kts 138°
2026-05-08 00:32 31.32660 -92.13675 39043 ft 504 kts 138°
2026-05-08 00:32 31.28320 -92.07236 39038 ft 504 kts 138°
2026-05-08 00:33 31.24012 -92.00854 39044 ft 503 kts 139°
2026-05-08 00:33 31.19685 -91.94455 39039 ft 502 kts 138°
2026-05-08 00:34 31.15361 -91.88070 39031 ft 500 kts 138°
2026-05-08 00:34 31.11040 -91.81701 39029 ft 499 kts 138°
2026-05-08 00:35 31.06729 -91.75357 39033 ft 499 kts 138°
2026-05-08 00:35 31.02427 -91.69037 39030 ft 498 kts 138°
2026-05-08 00:36 30.98124 -91.62725 39030 ft 497 kts 138°
2026-05-08 00:36 30.93820 -91.56423 39008 ft 497 kts 138°
2026-05-08 00:37 30.89520 -91.50135 39029 ft 496 kts 138°
2026-05-08 00:38 30.83059 -91.40708 39032 ft 496 kts 138°
2026-05-08 00:38 30.78758 -91.34444 39037 ft 496 kts 138°
2026-05-08 00:39 30.74451 -91.28183 39038 ft 496 kts 138°
2026-05-08 00:39 30.70163 -91.21958 39030 ft 496 kts 138°
2026-05-08 00:40 30.65844 -91.15698 39023 ft 497 kts 138°
2026-05-08 00:40 30.61521 -91.09443 39022 ft 497 kts 138°
2026-05-08 00:41 30.57195 -91.03192 39032 ft 497 kts 138°
2026-05-08 00:41 30.52856 -90.96934 39029 ft 498 kts 138°
2026-05-08 00:42 30.48510 -90.90675 39021 ft 498 kts 138°
2026-05-08 00:42 30.44157 -90.84416 39022 ft 499 kts 138°
2026-05-08 00:43 30.39801 -90.78161 39022 ft 499 kts 138°
2026-05-08 00:43 30.35442 -90.71912 39018 ft 499 kts 138°
2026-05-08 00:44 30.31079 -90.65667 39023 ft 499 kts 138°
2026-05-08 00:44 30.26704 -90.59417 39025 ft 500 kts 138°
2026-05-08 00:45 30.22326 -90.53170 39023 ft 500 kts 138°
2026-05-08 00:45 30.17944 -90.46929 39020 ft 500 kts 138°
2026-05-08 00:46 30.13551 -90.40680 39022 ft 501 kts 138°
2026-05-08 00:46 30.09159 -90.34442 39001 ft 500 kts 137°
2026-05-08 00:47 30.04806 -90.28269 38998 ft 499 kts 137°
2026-05-08 00:47 30.00423 -90.22064 39009 ft 499 kts 137°
2026-05-08 00:48 29.96039 -90.15868 39009 ft 498 kts 137°
2026-05-08 00:48 29.91660 -90.09686 39000 ft 498 kts 137°
2026-05-08 00:49 29.87283 -90.03516 38998 ft 497 kts 138°
2026-05-08 00:49 29.82887 -89.97370 38997 ft 496 kts 138°
2026-05-08 00:50 29.78438 -89.91324 39006 ft 494 kts 138°
2026-05-08 00:50 29.73992 -89.85295 39006 ft 494 kts 138°
2026-05-08 00:51 29.69551 -89.79253 39010 ft 495 kts 138°
2026-05-08 00:51 29.65101 -89.73208 39008 ft 495 kts 138°
2026-05-08 00:52 29.60650 -89.67170 39010 ft 495 kts 138°
2026-05-08 00:52 29.56194 -89.61132 39008 ft 496 kts 138°
2026-05-08 00:53 29.51725 -89.55085 38993 ft 496 kts 137°
2026-05-08 00:53 29.47257 -89.49046 39007 ft 497 kts 137°
2026-05-08 00:54 29.42778 -89.43004 39013 ft 497 kts 137°
2026-05-08 00:54 29.38295 -89.36964 39014 ft 498 kts 137°
2026-05-08 00:55 29.33802 -89.30920 39017 ft 498 kts 138°
2026-05-08 00:55 29.29308 -89.24884 39013 ft 498 kts 138°
2026-05-08 00:56 29.24804 -89.18842 39015 ft 498 kts 137°
2026-05-08 00:56 29.20303 -89.12813 39016 ft 498 kts 137°
2026-05-08 00:57 29.15803 -89.06795 39015 ft 498 kts 137°
2026-05-08 00:57 29.11302 -89.00785 39013 ft 498 kts 137°
2026-05-08 00:58 29.06799 -88.94781 39020 ft 497 kts 137°
2026-05-08 00:58 29.02291 -88.88779 39017 ft 498 kts 137°
2026-05-08 00:59 28.97775 -88.82774 39012 ft 497 kts 137°
2026-05-08 00:59 28.93269 -88.76790 39001 ft 496 kts 137°
2026-05-08 01:00 28.88768 -88.70822 39005 ft 496 kts 137°
2026-05-08 01:00 28.84291 -88.64847 39015 ft 495 kts 136°
2026-05-08 01:01 28.79838 -88.58864 39019 ft 495 kts 136°
2026-05-08 01:01 28.75409 -88.52920 39015 ft 495 kts 136°
2026-05-08 01:02 28.70947 -88.46948 39017 ft 495 kts 136°
2026-05-08 01:02 28.66487 -88.40993 39016 ft 495 kts 136°
2026-05-08 01:03 28.62024 -88.35040 39018 ft 494 kts 136°
2026-05-08 01:03 28.57562 -88.29097 39018 ft 494 kts 136°
2026-05-08 01:04 28.53098 -88.23159 39015 ft 493 kts 136°
2026-05-08 01:04 28.48636 -88.17233 39013 ft 493 kts 136°
2026-05-08 01:05 28.44172 -88.11309 39012 ft 493 kts 136°
2026-05-08 01:05 28.39768 -88.05325 39010 ft 497 kts 129°
2026-05-08 01:06 28.36566 -87.98315 39012 ft 505 kts 111°
2026-05-08 01:06 28.34414 -87.90715 39004 ft 505 kts 109°
2026-05-08 01:07 28.32319 -87.83112 39010 ft 504 kts 110°
2026-05-08 01:07 28.30167 -87.75533 39012 ft 504 kts 110°
2026-05-08 01:08 28.27985 -87.68001 39019 ft 503 kts 110°
2026-05-08 01:08 28.25789 -87.60460 39013 ft 503 kts 110°
2026-05-08 01:09 28.23598 -87.52944 39014 ft 502 kts 110°
2026-05-08 01:09 28.21406 -87.45432 39016 ft 501 kts 110°
2026-05-08 01:10 28.19211 -87.37929 39016 ft 501 kts 110°
2026-05-08 01:10 28.17017 -87.30442 39010 ft 500 kts 110°
2026-05-08 01:11 28.14835 -87.23018 39022 ft 500 kts 110°
2026-05-08 01:11 28.12636 -87.15550 39017 ft 500 kts 110°
2026-05-08 01:12 28.10431 -87.08077 39020 ft 500 kts 110°
2026-05-08 01:12 28.08225 -87.00619 39019 ft 499 kts 110°
2026-05-08 01:13 28.06015 -86.93164 39018 ft 499 kts 110°
2026-05-08 01:13 28.04160 -86.86917 39020 ft 499 kts 110°
2026-05-08 01:14 28.01960 -86.79521 39012 ft 499 kts 110°
2026-05-08 01:14 27.99757 -86.72074 39021 ft 499 kts 110°
2026-05-08 01:15 27.97603 -86.64613 39020 ft 499 kts 110°
2026-05-08 01:15 27.95455 -86.57157 39025 ft 499 kts 110°
2026-05-08 01:16 27.93297 -86.49706 39027 ft 498 kts 110°
2026-05-08 01:16 27.91131 -86.42261 39023 ft 498 kts 110°
2026-05-08 01:17 27.88962 -86.34826 39025 ft 498 kts 110°
2026-05-08 01:17 27.86791 -86.27400 39024 ft 498 kts 110°
2026-05-08 01:18 27.84616 -86.19974 39026 ft 498 kts 110°
2026-05-08 01:18 27.82437 -86.12554 39026 ft 497 kts 110°
2026-05-08 01:19 27.80257 -86.05145 39024 ft 497 kts 110°
2026-05-08 01:19 27.78072 -85.97734 39025 ft 497 kts 110°
2026-05-08 01:20 27.75885 -85.90334 39030 ft 497 kts 110°
2026-05-08 01:20 27.73695 -85.82942 39027 ft 497 kts 110°
2026-05-08 01:21 27.71515 -85.75598 39024 ft 497 kts 110°
2026-05-08 01:21 27.69318 -85.68214 39030 ft 497 kts 110°
2026-05-08 01:22 27.67116 -85.60828 39029 ft 497 kts 110°
2026-05-08 01:22 27.64910 -85.53443 39024 ft 497 kts 110°
2026-05-08 01:23 27.62701 -85.46065 39032 ft 497 kts 110°
2026-05-08 01:23 27.60488 -85.38688 39030 ft 496 kts 110°
2026-05-08 01:24 27.58508 -85.31227 39024 ft 498 kts 102°
2026-05-08 01:24 27.57281 -85.23545 39023 ft 498 kts 101°
2026-05-08 01:25 27.56007 -85.15875 39033 ft 498 kts 102°
2026-05-08 01:25 27.54653 -85.08227 39032 ft 498 kts 102°
2026-05-08 01:26 27.53296 -85.00576 39037 ft 498 kts 102°
2026-05-08 01:26 27.51944 -84.92931 39035 ft 498 kts 102°
2026-05-08 01:27 27.50600 -84.85345 39031 ft 497 kts 102°
2026-05-08 01:27 27.49240 -84.77701 39037 ft 497 kts 102°
2026-05-08 01:28 27.47882 -84.70074 39039 ft 497 kts 102°
2026-05-08 01:28 27.46520 -84.62439 39043 ft 497 kts 102°
2026-05-08 01:29 27.45158 -84.54821 39030 ft 496 kts 102°
2026-05-08 01:29 27.43792 -84.47209 39037 ft 496 kts 102°
2026-05-08 01:30 27.42423 -84.39606 39035 ft 496 kts 102°
2026-05-08 01:30 27.41049 -84.32005 39040 ft 495 kts 102°
2026-05-08 01:31 27.39672 -84.24423 39034 ft 495 kts 102°
2026-05-08 01:31 27.38292 -84.16839 39042 ft 494 kts 102°
2026-05-08 01:32 27.36910 -84.09264 39036 ft 494 kts 102°
2026-05-08 01:32 27.35523 -84.01688 39040 ft 494 kts 103°
2026-05-08 01:33 27.34133 -83.94123 39035 ft 494 kts 103°
2026-05-08 01:33 27.32742 -83.86572 39046 ft 493 kts 102°
2026-05-08 01:34 27.31349 -83.79033 39041 ft 493 kts 102°
2026-05-08 01:34 27.29960 -83.71542 39042 ft 492 kts 103°
2026-05-08 01:35 27.28551 -83.63967 39042 ft 492 kts 103°
2026-05-08 01:35 27.27158 -83.56502 39043 ft 491 kts 103°
2026-05-08 01:36 27.25753 -83.48994 39043 ft 491 kts 103°
2026-05-08 01:36 27.24344 -83.41492 39043 ft 490 kts 103°
2026-05-08 01:37 27.22933 -83.33998 39044 ft 490 kts 103°
2026-05-08 01:37 27.21520 -83.26516 39043 ft 490 kts 103°
2026-05-08 01:38 27.20102 -83.19031 39043 ft 489 kts 103°
2026-05-08 01:38 27.18683 -83.11559 39044 ft 489 kts 103°
2026-05-08 01:39 27.17258 -83.04085 39045 ft 489 kts 103°
2026-05-08 01:39 27.15840 -82.96674 39046 ft 489 kts 103°
2026-05-08 01:40 27.14411 -82.89220 39044 ft 488 kts 103°
2026-05-08 01:40 27.12469 -82.81968 39028 ft 483 kts 123°
2026-05-08 01:41 27.08913 -82.75598 39039 ft 481 kts 126°
2026-05-08 01:41 27.05310 -82.69270 39037 ft 482 kts 125°
2026-05-08 01:42 27.01770 -82.62888 39045 ft 482 kts 124°
2026-05-08 01:42 26.98255 -82.56490 39040 ft 482 kts 124°
2026-05-08 01:43 26.94716 -82.50063 38416 ft 488 kts 124°
2026-05-08 01:43 26.92933 -82.46833 37848 ft 486 kts 124°
2026-05-08 01:43 26.91041 -82.43730 37217 ft 481 kts 135°
2026-05-08 01:43 26.88632 -82.41191 36687 ft 473 kts 144°
2026-05-08 01:44 26.86114 -82.38832 36152 ft 470 kts 144°
2026-05-08 01:44 26.83600 -82.36516 35717 ft 466 kts 144°
2026-05-08 01:44 26.81101 -82.34201 35238 ft 464 kts 144°
2026-05-08 01:44 26.78644 -82.31893 34844 ft 460 kts 144°
2026-05-08 01:45 26.76214 -82.29587 34400 ft 458 kts 144°
2026-05-08 01:45 26.73799 -82.27281 33923 ft 456 kts 144°
2026-05-08 01:45 26.71398 -82.24982 33426 ft 453 kts 144°
2026-05-08 01:45 26.69011 -82.22694 32965 ft 450 kts 144°
2026-05-08 01:46 26.66634 -82.20418 32495 ft 448 kts 144°
2026-05-08 01:46 26.64276 -82.18164 32046 ft 445 kts 143°
2026-05-08 01:46 26.61934 -82.15927 31627 ft 442 kts 143°
2026-05-08 01:46 26.59607 -82.13706 31193 ft 439 kts 143°
2026-05-08 01:47 26.57319 -82.11523 30772 ft 437 kts 143°
2026-05-08 01:47 26.55015 -82.09327 30342 ft 435 kts 143°
2026-05-08 01:47 26.52721 -82.07140 29889 ft 433 kts 143°
2026-05-08 01:48 26.48253 -82.02684 28914 ft 428 kts 141°
2026-05-08 01:48 26.46063 -82.00456 28451 ft 424 kts 141°
2026-05-08 01:48 26.43890 -81.98247 27996 ft 421 kts 142°
2026-05-08 01:48 26.41727 -81.96057 27547 ft 418 kts 142°
2026-05-08 01:49 26.39582 -81.93893 27101 ft 415 kts 142°
2026-05-08 01:49 26.37443 -81.91741 26663 ft 412 kts 142°
2026-05-08 01:49 26.35321 -81.89609 26226 ft 410 kts 142°
2026-05-08 01:49 26.33211 -81.87491 25776 ft 407 kts 142°
2026-05-08 01:50 26.31112 -81.85384 25339 ft 405 kts 142°
2026-05-08 01:50 26.29022 -81.83287 24878 ft 404 kts 142°
2026-05-08 01:50 26.26934 -81.81194 24431 ft 403 kts 142°
2026-05-08 01:50 26.24858 -81.79109 23973 ft 402 kts 140°
2026-05-08 01:51 26.23061 -81.76708 23459 ft 408 kts 121°
2026-05-08 01:51 26.21795 -81.73900 22976 ft 406 kts 117°
2026-05-08 01:51 26.20600 -81.71061 22483 ft 404 kts 116°
2026-05-08 01:51 26.19420 -81.68236 22018 ft 400 kts 116°
2026-05-08 01:52 26.18241 -81.65443 21561 ft 397 kts 116°
2026-05-08 01:52 26.17059 -81.62678 21119 ft 394 kts 116°
2026-05-08 01:52 26.15878 -81.59945 20686 ft 391 kts 116°
2026-05-08 01:52 26.14698 -81.57228 20228 ft 388 kts 116°
2026-05-08 01:53 26.13525 -81.54536 19789 ft 385 kts 116°
2026-05-08 01:53 26.12373 -81.51896 19337 ft 383 kts 116°
2026-05-08 01:53 26.11210 -81.49232 18875 ft 381 kts 116°
2026-05-08 01:53 26.10056 -81.46590 18424 ft 379 kts 116°
2026-05-08 01:54 26.08907 -81.43958 17923 ft 377 kts 116°
2026-05-08 01:54 26.07767 -81.41351 17462 ft 373 kts 116°
2026-05-08 01:54 26.06642 -81.38779 16984 ft 364 kts 116°
2026-05-08 01:54 26.05557 -81.36288 16530 ft 352 kts 116°
2026-05-08 01:55 26.04507 -81.33878 16101 ft 341 kts 116°
2026-05-08 01:55 26.03488 -81.31537 15691 ft 331 kts 116°
2026-05-08 01:55 26.02488 -81.29242 15304 ft 330 kts 116°
2026-05-08 01:55 26.01482 -81.26938 14899 ft 331 kts 116°
2026-05-08 01:56 26.00477 -81.24635 14489 ft 330 kts 116°
2026-05-08 01:56 25.99476 -81.22341 14081 ft 329 kts 116°
2026-05-08 01:56 25.98477 -81.20054 13634 ft 328 kts 117°
2026-05-08 01:56 25.97484 -81.17781 13194 ft 326 kts 116°
2026-05-08 01:57 25.96494 -81.15518 12758 ft 324 kts 116°
2026-05-08 01:57 25.95513 -81.13277 12345 ft 321 kts 117°
2026-05-08 01:57 25.94542 -81.11058 11956 ft 318 kts 116°
2026-05-08 01:57 25.93580 -81.08862 11563 ft 315 kts 117°
2026-05-08 01:58 25.92626 -81.06687 11159 ft 313 kts 117°
2026-05-08 01:58 25.91678 -81.04524 10745 ft 311 kts 116°
2026-05-08 01:58 25.90763 -81.02363 10341 ft 309 kts 114°
2026-05-08 01:58 25.89946 -81.00223 10144 ft 300 kts 113°
2026-05-08 01:59 25.89154 -80.98113 9916 ft 292 kts 113°
2026-05-08 01:59 25.88387 -80.96075 9553 ft 289 kts 114°
2026-05-08 01:59 25.87605 -80.94023 9139 ft 288 kts 114°
2026-05-08 01:59 25.86825 -80.91985 8847 ft 283 kts 114°
2026-05-08 02:00 25.86059 -80.89990 8577 ft 278 kts 113°
2026-05-08 02:00 25.85306 -80.88030 8330 ft 276 kts 114°
2026-05-08 02:00 25.84550 -80.86064 8093 ft 278 kts 113°
2026-05-08 02:00 25.83788 -80.84084 7815 ft 280 kts 113°
2026-05-08 02:01 25.83021 -80.82091 7532 ft 281 kts 114°
2026-05-08 02:01 25.82252 -80.80094 7251 ft 281 kts 114°
2026-05-08 02:01 25.81489 -80.78113 6963 ft 278 kts 114°
2026-05-08 02:01 25.80736 -80.76157 6685 ft 274 kts 114°
2026-05-08 02:02 25.79988 -80.74217 6408 ft 273 kts 114°
2026-05-08 02:02 25.79239 -80.72277 6116 ft 272 kts 113°
2026-05-08 02:02 25.78497 -80.70354 5831 ft 271 kts 113°
2026-05-08 02:02 25.77757 -80.68438 5550 ft 269 kts 112°
2026-05-08 02:03 25.77129 -80.66504 5258 ft 266 kts 97°
2026-05-08 02:03 25.77140 -80.64474 5019 ft 261 kts 85°
2026-05-08 02:03 25.77253 -80.62473 4750 ft 259 kts 86°
2026-05-08 02:03 25.77356 -80.60486 4475 ft 256 kts 85°
2026-05-08 02:04 25.77451 -80.58526 4216 ft 252 kts 86°
2026-05-08 02:04 25.77542 -80.56601 3961 ft 248 kts 86°
2026-05-08 02:04 25.77646 -80.54710 3742 ft 243 kts 85°
2026-05-08 02:04 25.77745 -80.52873 3642 ft 233 kts 86°
2026-05-08 02:05 25.77798 -80.51688 3468 ft 233 kts 86°
2026-05-08 02:05 25.77871 -80.49892 3195 ft 233 kts 86°
2026-05-08 02:05 25.77941 -80.48091 2897 ft 234 kts 87°
2026-05-08 02:05 25.78013 -80.46280 2604 ft 234 kts 88°
2026-05-08 02:06 25.78084 -80.44498 2305 ft 229 kts 88°
2026-05-08 02:06 25.78153 -80.42759 2017 ft 222 kts 88°
2026-05-08 02:06 25.78221 -80.41084 1731 ft 210 kts 88°
2026-05-08 02:06 25.78284 -80.39533 1443 ft 193 kts 89°
2026-05-08 02:07 25.78340 -80.38137 1228 ft 170 kts 89°
2026-05-08 02:07 25.78390 -80.36896 1001 ft 152 kts 89°
2026-05-08 02:07 25.78448 -80.35773 790 ft 139 kts 89°
2026-05-08 02:07 25.78496 -80.34731 659 ft 133 kts 91°
2026-05-08 02:08 25.78507 -80.33695 536 ft 136 kts 89°
2026-05-08 02:08 25.78568 -80.32659 347 ft 132 kts 91°
2026-05-08 02:08 25.78607 -80.31660 173 ft 130 kts 89°
2026-05-08 02:08 25.78643 -80.30660 18 ft 126 kts 89°
2026-05-08 02:09 25.78677 -80.29876 13 ft 71 kts 87°
2026-05-08 02:09 25.78695 -80.29478 13 ft 47 kts 87°
2026-05-08 02:09 25.78732 -80.29245 15 ft 26 kts 64°
2026-05-08 02:09 25.78783 -80.29182 14 ft 8 kts 36°
2026-05-08 02:10 25.78803 -80.29154 14 ft 0 kts 58°
2026-05-08 02:10 25.78804 -80.29152 14 ft 2 kts 59°
2026-05-08 02:10 25.78819 -80.29104 14 ft 12 kts 79°
2026-05-08 02:10 25.78834 -80.28984 14 ft 19 kts 75°
2026-05-08 02:11 25.78865 -80.28841 13 ft 19 kts 84°
2026-05-08 02:11 25.78870 -80.28697 16 ft 18 kts 86°
2026-05-08 02:11 25.78876 -80.28558 14 ft 18 kts 89°
2026-05-08 02:11 25.78881 -80.28425 15 ft 17 kts 86°
2026-05-08 02:12 25.78914 -80.28305 15 ft 16 kts 50°
2026-05-08 02:12 25.78987 -80.28210 15 ft 16 kts 51°
2026-05-08 02:12 25.79052 -80.28115 14 ft 15 kts 56°
2026-05-08 02:12 25.79110 -80.28055 14 ft 6 kts 35°
2026-05-08 02:13 25.79121 -80.28026 14 ft 2 kts 91°
2026-05-08 02:13 25.79120 -80.28014 14 ft 2 kts 96°
2026-05-08 02:13 25.79118 -80.28002 14 ft 1 kts 98°
2026-05-08 02:13 25.79116 -80.27991 14 ft 1 kts 104°
2026-05-08 02:14 25.79114 -80.27982 16 ft 1 kts 107°
2026-05-08 02:14 25.79111 -80.27973 15 ft 1 kts 108°
2026-05-08 02:14 25.79110 -80.27971 15 ft 0 kts 108°